Emerado, ND

12:22 PM CST on February 21, 2017 (GMT -0600)
Grand Forks International

Weather History for KGFK - April, 2013

Change the Weather History Date:

Saturday, April 20, 2013

  Actual Average Record
Temperature  
Mean Temperature 27 °F 44 °F  
Max Temperature 34 °F 57 °F 90 °F (1980)
Min Temperature 20 °F 32 °F 17 °F (1981)
Degree Days  
Heating Degree Days 38 21  
Month to date heating degree days 742 514  
Since 1 July heating degree days 9309 8899  
Cooling Degree Days 0 0  
Month to date cooling degree days 0 0  
Year to date cooling degree days 0 0  
Moisture  
Dew Point 18 °F    
Average Humidity 65    
Maximum Humidity 84    
Minimum Humidity 45    
Precipitation  
Precipitation 0.00 in 0.03 in 1.35 in (1974)
Month to date precipitation 0.70 0.58  
Year to date precipitation 2.47 2.61  
Snow  
Snow 0.00 in 0.10 in 1.10 in (1970)
Month to date snowfall 6.5 2.1  
Since 1 July snowfall 50.0 46.5  
Snow Depth 1.00 in    
Sea Level Pressure  
Sea Level Pressure 30.19 in    
Wind  
Wind Speed 8 mph (SSW)    
Max Wind Speed 17 mph    
Max Gust Speed 24 mph    
Visibility 10 miles    
Events      
T = Trace of Precipitation, MM = Missing Value Source: NWS Daily Summary

Daily Weather History Graph

Daily Weather History Graph

Search for Another Location

Airport or City:

Trip Planner

Search our weather history database for the weather conditions in past years. The results will help you decide how hot, cold, wet, or windy it might be!

Date:

Astronomy

Apr. 20, 2013 Rise Set
Actual Time 6:29 AM CDT 8:26 PM CDT
Civil Twilight 5:56 AM CDT 8:59 PM CDT
Nautical Twilight 5:15 AM CDT 9:41 PM CDT
Astronomical Twilight 4:30 AM CDT 10:26 PM CDT
Moon 2:49 PM CDT (4/20) 3:43 AM CDT (4/20)
Length of Visible Light 15h 03m
Length of Day
13h 57m
Waxing Gibbous, 71% of the Moon is Illuminated
Apr 20
Waxing Gibbous
Apr 25
Full
May 2
Last Quarter
May 9
New
May 17
First Quarter

Hourly Weather History & Observations

Time (CDT) Temp. Windchill Dew Point Humidity Pressure Visibility Wind Dir Wind Speed Gust Speed Precip Events Conditions
12:53 AM 24.1 °F 13.7 °F 18.0 °F 77% 30.11 in 10.0 mi NW 10.4 mph - N/A   Clear
1:53 AM 23.0 °F 15.8 °F 17.1 °F 78% 30.12 in 10.0 mi NW 5.8 mph - N/A   Clear
2:53 AM 23.0 °F 14.7 °F 17.1 °F 78% 30.14 in 10.0 mi NW 6.9 mph - N/A   Clear
3:53 AM 21.9 °F 14.5 °F 16.0 °F 78% 30.14 in 10.0 mi NW 5.8 mph - N/A   Clear
4:53 AM 21.0 °F 13.4 °F 15.1 °F 78% 30.16 in 10.0 mi NW 5.8 mph - N/A   Clear
5:53 AM 21.0 °F 14.6 °F 16.0 °F 81% 30.18 in 10.0 mi WNW 4.6 mph - N/A   Clear
6:53 AM 19.9 °F 13.4 °F 15.1 °F 81% 30.19 in 10.0 mi WNW 4.6 mph - N/A   Partly Cloudy
7:53 AM 21.9 °F 17.2 °F 16.0 °F 78% 30.21 in 10.0 mi NNW 3.5 mph - N/A   Partly Cloudy
8:53 AM 26.1 °F - 17.1 °F 69% 30.22 in 10.0 mi Calm Calm - N/A   Scattered Clouds
9:53 AM 28.9 °F - 16.0 °F 58% 30.23 in 10.0 mi Calm Calm - N/A   Scattered Clouds
10:53 AM 28.9 °F 22.8 °F 12.9 °F 51% 30.23 in 10.0 mi South 5.8 mph - N/A   Scattered Clouds
11:53 AM 30.0 °F 24.1 °F 15.1 °F 54% 30.23 in 10.0 mi South 5.8 mph - N/A   Scattered Clouds
12:53 PM 32.0 °F 26.4 °F 14.0 °F 48% 30.22 in 10.0 mi South 5.8 mph - N/A   Scattered Clouds
1:53 PM 32.0 °F 24.8 °F 16.0 °F 52% 30.21 in 10.0 mi South 8.1 mph - N/A   Scattered Clouds
2:53 PM 34.0 °F 26.0 °F 21.0 °F 59% 30.22 in 10.0 mi SSE 10.4 mph - N/A   Scattered Clouds
3:53 PM 33.1 °F 23.9 °F 19.0 °F 56% 30.21 in 10.0 mi South 12.7 mph - N/A   Scattered Clouds
4:53 PM 34.0 °F 25.5 °F 19.9 °F 56% 30.21 in 10.0 mi South 11.5 mph - N/A   Mostly Cloudy
5:53 PM 33.1 °F 23.4 °F 19.9 °F 59% 30.20 in 10.0 mi South 13.8 mph - N/A   Mostly Cloudy
6:53 PM 34.0 °F 26.0 °F 17.1 °F 50% 30.19 in 10.0 mi South 10.4 mph - N/A   Scattered Clouds
7:53 PM 30.9 °F 21.7 °F 19.0 °F 61% 30.18 in 10.0 mi South 11.5 mph - N/A   Mostly Cloudy
8:53 PM 30.0 °F 21.1 °F 19.9 °F 66% 30.17 in 10.0 mi South 10.4 mph - N/A   Scattered Clouds
9:53 PM 30.0 °F 22.4 °F 23.0 °F 75% 30.17 in 10.0 mi SSE 8.1 mph - N/A   Scattered Clouds
10:53 PM 30.9 °F 21.7 °F 24.1 °F 76% 30.17 in 10.0 mi SSE 11.5 mph - N/A   Mostly Cloudy
11:53 PM 30.9 °F 20.2 °F 24.1 °F 76% 30.16 in 10.0 mi SSE 15.0 mph 24.2 mph N/A   Overcast